Change the Weather History Date:

Thursday, November 7, 2013

  Actual Average Record
Temperature  
Mean Temperature 47 °F 48 °F  
Max Temperature 60 °F 59 °F 82 °F (1938)
Min Temperature 34 °F 38 °F 18 °F (1930)
Degree Days  
Heating Degree Days 18 17  
Month to date heating degree days 95 110  
Cooling Degree Days 0 0  
Month to date cooling degree days 0 0  
Year to date cooling degree days 955 953  
Moisture  
Dew Point 43 °F    
Average Humidity 70    
Maximum Humidity 100    
Minimum Humidity 39    
Precipitation  
Precipitation 0.97 in 0.11 in 0.97 in (2013)
Month to date precipitation 1.38 0.76  
Year to date precipitation 37.32 35.49  
Sea Level Pressure  
Sea Level Pressure 30.08 in    
Wind  
Wind Speed 8 mph (WNW)    
Max Wind Speed 23 mph    
Max Gust Speed 31 mph    
Visibility 7 miles    
Events Rain    
T = Trace of Precipitation, MM = Missing Value Source: NWS Daily Summary

Daily Weather History Graph

Daily Weather History Graph

Search for Another Location

Airport or City:

Trip Planner

Search our weather history database for the weather conditions in past years. The results will help you decide how hot, cold, wet, or windy it might be!

Date:

Astronomy

Nov. 07, 2013 Rise Set
Actual Time 7:00 AM EST 5:17 PM EST
Civil Twilight 6:32 AM EST 5:45 PM EST
Nautical Twilight 6:00 AM EST 6:17 PM EST
Astronomical Twilight 5:28 AM EST 6:49 PM EST
Moon 11:07 AM EST (11/7) 9:28 PM EST (11/7)
Length of Visible Light 11h 13m
Length of Day
10h 17m
Waxing Crescent, 22% of the Moon is Illuminated
Nov 7
Waxing Crescent
Nov 10
First Quarter
Nov 17
Full
Nov 25
Last Quarter
Dec 2
New

Hourly Weather History & Observations

Time (EST) Temp. Windchill Dew Point Humidity Pressure Visibility Wind Dir Wind Speed Gust Speed Precip Events Conditions
12:45 AM 60.8 °F - 57.2 °F 88% 29.99 in 3.0 mi Variable 5.8 mph - 0.06 in Rain Rain
12:49 AM 60.8 °F - 57.2 °F 88% 29.99 in 2.5 mi Variable 6.9 mph - 0.09 in Rain Rain
12:53 AM 60.1 °F - 57.9 °F 93% 29.97 in 1.5 mi SW 12.7 mph 19.6 mph 0.16 in Rain Heavy Rain
1:02 AM 60.8 °F - 57.2 °F 88% 29.97 in 2.5 mi SW 10.4 mph 21.9 mph 0.03 in Rain Rain
1:09 AM 60.8 °F - 57.2 °F 88% 29.97 in 5.0 mi SW 9.2 mph - 0.03 in Rain Light Rain
1:51 AM 60.8 °F - 57.2 °F 88% 29.95 in 6.0 mi SW 8.1 mph - 0.06 in Rain Light Rain
1:53 AM 60.1 °F - 57.9 °F 93% 29.94 in 7.0 mi WSW 6.9 mph - 0.06 in Rain Light Rain
2:03 AM 59.0 °F - 57.2 °F 94% 29.97 in 5.0 mi WNW 15.0 mph 20.7 mph 0.01 in Rain Light Rain
2:08 AM 57.2 °F - 55.4 °F 94% 29.97 in 1.8 mi WNW 15.0 mph 20.7 mph 0.11 in Rain Heavy Rain
2:19 AM 57.2 °F - 55.4 °F 94% 29.97 in 2.0 mi WNW 8.1 mph 19.6 mph 0.20 in Rain Heavy Rain
2:37 AM 57.2 °F - 55.4 °F 94% 29.98 in 5.0 mi WNW 8.1 mph - 0.26 in Rain Light Rain
2:50 AM 55.4 °F - 55.4 °F 100% 29.97 in 5.0 mi WNW 4.6 mph - 0.28 in Rain Light Rain
2:53 AM 55.9 °F - 55.0 °F 97% 29.96 in 5.0 mi WNW 4.6 mph - 0.29 in Rain Light Rain
3:05 AM 55.4 °F - 55.4 °F 100% 29.97 in 7.0 mi WNW 4.6 mph - 0.00 in Rain Light Rain
3:30 AM 55.4 °F - 53.6 °F 94% 29.97 in 2.5 mi WNW 17.3 mph 20.7 mph 0.09 in Rain Heavy Rain
3:50 AM 51.8 °F - 50.0 °F 94% 30.00 in 3.0 mi NW 16.1 mph 25.3 mph 0.20 in Rain Rain
3:53 AM 52.0 °F - 50.0 °F 93% 29.99 in 3.0 mi NW 12.7 mph 25.3 mph 0.21 in Rain Heavy Rain
4:07 AM 51.8 °F - 48.2 °F 88% 30.00 in 5.0 mi NW 11.5 mph - 0.04 in Rain Rain
4:15 AM 51.8 °F - 48.2 °F 88% 30.01 in 5.0 mi NW 13.8 mph 21.9 mph 0.05 in Rain Light Rain
4:34 AM 50.0 °F - 48.2 °F 94% 30.01 in 6.0 mi NW 5.8 mph - 0.08 in Rain Rain
4:53 AM 50.0 °F - 48.0 °F 93% 30.03 in 5.0 mi West 9.2 mph - 0.11 in Rain Rain
5:53 AM 46.9 °F - 45.0 °F 93% 30.05 in 4.0 mi NW 10.4 mph 16.1 mph 0.12 in Rain Rain
6:09 AM 46.4 °F 41.5 °F 42.8 °F 87% 30.04 in 7.0 mi NW 10.4 mph 18.4 mph 0.02 in Rain Light Rain
6:53 AM 45.0 °F 41.8 °F 42.1 °F 90% 30.08 in 10.0 mi NW 5.8 mph - 0.03 in   Overcast
7:06 AM 44.6 °F 40.7 °F 42.8 °F 93% 30.08 in 10.0 mi NW 6.9 mph - N/A   Overcast
7:53 AM 45.0 °F 40.6 °F 41.0 °F 86% 30.10 in 10.0 mi NW 8.1 mph - N/A   Overcast
8:04 AM 44.6 °F 38.8 °F 41.0 °F 87% 30.11 in 10.0 mi NW 11.5 mph 16.1 mph N/A   Overcast
8:53 AM 45.0 °F 39.7 °F 41.0 °F 86% 30.14 in 10.0 mi WNW 10.4 mph - N/A   Overcast
9:00 AM 44.6 °F 38.8 °F 41.0 °F 87% 30.15 in 10.0 mi WNW 11.5 mph 17.3 mph N/A   Overcast
9:21 AM 44.6 °F 38.8 °F 39.2 °F 81% 30.16 in 10.0 mi WNW 11.5 mph - N/A   Overcast
9:28 AM 44.6 °F 38.8 °F 39.2 °F 81% 30.16 in 10.0 mi WNW 11.5 mph 16.1 mph N/A   Overcast
9:53 AM 45.0 °F 39.7 °F 37.9 °F 76% 30.17 in 10.0 mi WNW 10.4 mph - N/A   Overcast
10:53 AM 46.0 °F 42.5 °F 36.0 °F 68% 30.18 in 10.0 mi WNW 6.9 mph - N/A   Overcast
11:53 AM 46.0 °F 40.6 °F 36.0 °F 68% 30.19 in 10.0 mi WNW 11.5 mph 18.4 mph N/A   Overcast
12:53 PM 46.9 °F - 30.9 °F 54% 30.17 in 10.0 mi NW 10.4 mph 17.3 mph N/A   Overcast
1:53 PM 46.9 °F - 32.0 °F 56% 30.16 in 10.0 mi NW 13.8 mph 21.9 mph N/A   Overcast
2:53 PM 48.0 °F - 30.9 °F 52% 30.16 in 10.0 mi WNW 16.1 mph 26.5 mph N/A   Mostly Cloudy
3:53 PM 48.0 °F - 25.0 °F 41% 30.17 in 10.0 mi WNW 15.0 mph 20.7 mph N/A   Mostly Cloudy
4:53 PM 45.0 °F 40.1 °F 24.1 °F 44% 30.20 in 10.0 mi West 9.2 mph 17.3 mph N/A   Scattered Clouds
5:53 PM 44.1 °F 40.8 °F 25.0 °F 47% 30.22 in 10.0 mi WNW 5.8 mph - N/A   Overcast
6:53 PM 43.0 °F 39.5 °F 25.0 °F 49% 30.23 in 10.0 mi WNW 5.8 mph - N/A   Overcast
7:53 PM 41.0 °F - 26.1 °F 55% 30.23 in 10.0 mi Calm Calm - N/A   Partly Cloudy
8:53 PM 37.0 °F 34.5 °F 28.0 °F 70% 30.23 in 10.0 mi WSW 3.5 mph - N/A   Clear
9:53 PM 35.1 °F 32.2 °F 27.0 °F 72% 30.23 in 10.0 mi WSW 3.5 mph - N/A   Clear
10:53 PM 36.0 °F 32.1 °F 28.0 °F 73% 30.23 in 10.0 mi WSW 4.6 mph - N/A   Overcast
11:53 PM 37.9 °F 33.5 °F 27.0 °F 65% 30.21 in 10.0 mi SW 5.8 mph - N/A   Scattered Clouds